Weather History for Weslaco, TX

Change the Weather History Date:

Tuesday, June 10, 2014

  Actual Average (KMFE) Record (KMFE)
Temperature  
Mean Temperature 87 °F 86 °F  
Max Temperature 98 °F 96 °F 103 °F (2001)
Min Temperature 76 °F 76 °F 61 °F (1955)
Degree Days  
Heating Degree Days 0 0  
Month to date heating degree days 0  
Since 1 June heating degree days 0  
Since 1 July heating degree days 579  
Cooling Degree Days 22 21  
Month to date cooling degree days 204  
Year to date cooling degree days 1459  
Since 1 June cooling degree days 204  
Growing Degree Days 37 (Base 50)    
Moisture  
Dew Point 72 °F    
Average Humidity 68    
Maximum Humidity 89    
Minimum Humidity 35    
Precipitation  
Precipitation 0.00 in 0.09 in 0.50 in (1972)
Month to date precipitation 0.83  
Year to date precipitation 7.61  
Sea Level Pressure  
Sea Level Pressure 29.83 in    
Wind  
Wind Speed 7 mph (SSE)    
Max Wind Speed 14 mph    
Max Gust Speed 23 mph    
Visibility 9 miles    
Events      
T = Trace of Precipitation, MM = Missing Value Source: NWS Daily Summary

Daily Weather History Graph

Daily Weather History Graph

Search for Another Location

Airport:

Trip Planner

Search our weather history database for the weather conditions in past years. The results will help you decide how hot, cold, wet, or windy it might be!

Date:

Astronomy

Jun. 10, 2014 Rise Set
Actual Time 6:38 AM CDT 8:23 PM CDT
Civil Twilight 6:12 AM CDT 8:49 PM CDT
Nautical Twilight 5:41 AM CDT 9:21 PM CDT
Astronomical Twilight 5:08 AM CDT 9:54 PM CDT
Moon 6:02 PM CDT (6/10) 4:30 AM CDT (6/10)
Length of Visible Light 14h 37m
Length of Day
13h 44m
Waxing Gibbous, 92% of the Moon is Illuminated
Jun 10
Waxing Gibbous
Jun 12
Full
Jun 19
Last Quarter
Jun 27
New
Jul 5
First Quarter

Hourly Weather History & Observations

Time (CDT) Temp. Heat Index Dew Point Humidity Pressure Visibility Wind Dir Wind Speed Gust Speed Precip Events Conditions
12:15 AM 79.0 °F - 73.2 °F 82% 29.83 in 10.0 mi SSE 6.9 mph - N/A   Clear
12:35 AM 79.0 °F - 73.4 °F 83% 29.82 in 10.0 mi SE 5.8 mph - N/A   Clear
12:55 AM 78.8 °F - 73.4 °F 83% 29.82 in 10.0 mi SSE 5.8 mph - N/A   Clear
1:15 AM 78.8 °F - 73.4 °F 83% 29.82 in 10.0 mi SSE 9.2 mph - N/A   Clear
1:35 AM 78.8 °F - 73.2 °F 83% 29.82 in 10.0 mi South 8.1 mph - N/A   Clear
1:55 AM 78.3 °F - 73.0 °F 84% 29.82 in 10.0 mi South 9.2 mph - N/A   Clear
2:15 AM 78.4 °F - 73.4 °F 84% 29.82 in 10.0 mi South 8.1 mph - N/A   Clear
2:35 AM 78.3 °F - 73.2 °F 84% 29.81 in 10.0 mi SSE 6.9 mph - N/A   Clear
2:55 AM 78.1 °F - 73.4 °F 85% 29.81 in 10.0 mi South 8.1 mph - N/A   Clear
3:15 AM 77.9 °F - 73.4 °F 86% 29.80 in 10.0 mi South 5.8 mph - N/A   Clear
3:35 AM 77.5 °F - 73.4 °F 87% 29.80 in 10.0 mi South 6.9 mph - N/A   Clear
4:15 AM 77.2 °F - 73.4 °F 88% 29.81 in 10.0 mi South 4.6 mph - N/A   Clear
4:35 AM 77.0 °F - 73.0 °F 88% 29.81 in 10.0 mi South 4.6 mph - N/A   Clear
4:55 AM 77.0 °F - 73.0 °F 88% 29.81 in 10.0 mi South 3.5 mph - N/A   Clear
5:15 AM 77.0 °F - 72.9 °F 87% 29.81 in 10.0 mi SE 4.6 mph - N/A   Clear
5:35 AM 76.8 °F - 72.9 °F 88% 29.82 in 7.0 mi Calm Calm - N/A   Scattered Clouds
5:55 AM 76.6 °F - 72.9 °F 88% 29.83 in 7.0 mi Calm Calm - N/A   Scattered Clouds
6:15 AM 76.1 °F - 72.5 °F 89% 29.84 in 7.0 mi Calm Calm - N/A   Mostly Cloudy
6:35 AM 77.0 °F - 72.9 °F 87% 29.84 in 7.0 mi Calm Calm - N/A   Overcast
6:55 AM 77.2 °F - 73.0 °F 87% 29.85 in 7.0 mi ESE 3.5 mph - N/A   Overcast
7:15 AM 77.2 °F - 72.9 °F 86% 29.86 in 7.0 mi Calm Calm - N/A   Overcast
7:35 AM 77.4 °F - 72.9 °F 86% 29.86 in 7.0 mi East 3.5 mph - N/A   Overcast
7:55 AM 78.3 °F - 73.4 °F 85% 29.86 in 5.0 mi ESE 3.5 mph - N/A   Haze
8:15 AM 79.2 °F - 73.8 °F 83% 29.87 in 5.0 mi Calm Calm - N/A   Haze
8:35 AM 80.8 °F 85.9 °F 73.9 °F 80% 29.87 in 7.0 mi SSE 9.2 mph - N/A   Overcast
8:55 AM 80.8 °F 85.9 °F 73.9 °F 80% 29.88 in 7.0 mi South 8.1 mph - N/A   Overcast
9:15 AM 82.4 °F 88.4 °F 73.8 °F 75% 29.88 in 7.0 mi South 8.1 mph - N/A   Overcast
9:35 AM 84.7 °F 91.7 °F 73.4 °F 69% 29.88 in 7.0 mi SSW 9.2 mph - N/A   Overcast
9:55 AM 85.6 °F 92.6 °F 73.2 °F 66% 29.88 in 7.0 mi SSE 10.4 mph - N/A   Mostly Cloudy
10:15 AM 85.1 °F 91.1 °F 72.0 °F 65% 29.88 in 5.0 mi SSW 9.2 mph - N/A   Haze
10:35 AM 88.5 °F 94.9 °F 71.8 °F 57% 29.88 in 7.0 mi South 9.2 mph - N/A   Scattered Clouds
10:55 AM 89.6 °F 96.6 °F 71.8 °F 56% 29.88 in 10.0 mi South 8.1 mph - N/A   Mostly Cloudy
11:15 AM 90.7 °F 97.4 °F 71.6 °F 53% 29.87 in 7.0 mi SSW 10.4 mph - N/A   Scattered Clouds
11:35 AM 92.1 °F 99.4 °F 71.6 °F 51% 29.87 in 7.0 mi South 11.5 mph - N/A   Scattered Clouds
11:55 AM 91.8 °F 98.6 °F 71.4 °F 51% 29.87 in 10.0 mi South 10.4 mph 23.0 mph N/A   Scattered Clouds
12:15 PM 92.7 °F 99.4 °F 70.7 °F 49% 29.86 in 7.0 mi SSW 10.4 mph - N/A   Scattered Clouds
12:55 PM 94.5 °F 100.2 °F 69.6 °F 44% 29.86 in 7.0 mi South 4.6 mph 17.3 mph N/A   Scattered Clouds
1:15 PM 95.5 °F 101.2 °F 69.4 °F 42% 29.85 in 10.0 mi SSW 6.9 mph - N/A   Scattered Clouds
1:35 PM 92.8 °F 97.6 °F 68.5 °F 45% 29.85 in 10.0 mi Calm Calm - N/A   Mostly Cloudy
2:15 PM 96.1 °F 101.0 °F 68.2 °F 40% 29.84 in 10.0 mi Calm Calm - N/A   Mostly Cloudy
3:35 PM 97.7 °F 101.7 °F 66.6 °F 36% 29.82 in 10.0 mi East 3.5 mph - N/A   Scattered Clouds
3:55 PM 98.2 °F 103.4 °F 67.8 °F 37% 29.81 in 10.0 mi ESE 5.8 mph - N/A   Scattered Clouds
4:15 PM 96.1 °F 100.5 °F 67.5 °F 39% 29.81 in 10.0 mi SE 5.8 mph - N/A   Clear
4:55 PM 97.7 °F 103.0 °F 68.0 °F 38% 29.80 in 10.0 mi ESE 5.8 mph - N/A   Scattered Clouds
5:15 PM 97.7 °F 103.0 °F 67.8 °F 38% 29.79 in 7.0 mi ESE 5.8 mph - N/A   Clear
5:35 PM 97.7 °F 103.0 °F 68.0 °F 38% 29.78 in 7.0 mi ESE 5.8 mph - N/A   Scattered Clouds
5:55 PM 97.5 °F 102.0 °F 67.3 °F 37% 29.78 in 7.0 mi SE 5.8 mph - N/A   Clear
6:15 PM 97.5 °F 100.8 °F 66.0 °F 35% 29.78 in 10.0 mi ESE 6.9 mph - N/A   Clear
6:55 PM 95.4 °F 102.0 °F 70.5 °F 44% 29.79 in 10.0 mi SSE 13.8 mph 18.4 mph N/A   Scattered Clouds
7:15 PM 92.1 °F 99.4 °F 71.6 °F 51% 29.79 in 7.0 mi SSE 12.7 mph 18.4 mph N/A   Scattered Clouds
7:35 PM 91.2 °F 98.5 °F 71.8 °F 53% 29.80 in 10.0 mi SE 11.5 mph 18.4 mph N/A   Clear
7:55 PM 89.6 °F 96.6 °F 71.8 °F 56% 29.81 in 7.0 mi SE 13.8 mph 19.6 mph N/A   Clear
8:15 PM 88.0 °F 94.2 °F 71.6 °F 58% 29.81 in 10.0 mi SE 12.7 mph 19.6 mph N/A   Clear
8:35 PM 86.7 °F 92.9 °F 72.0 °F 61% 29.81 in 10.0 mi SE 10.4 mph 17.3 mph N/A   Clear
8:55 PM 85.5 °F 91.1 °F 71.8 °F 63% 29.82 in 10.0 mi SE 8.1 mph - N/A   Clear
9:15 PM 84.6 °F 90.3 °F 72.0 °F 66% 29.83 in 10.0 mi SSE 9.2 mph 17.3 mph N/A   Clear
9:35 PM 83.8 °F 89.5 °F 72.1 °F 68% 29.84 in 10.0 mi SSE 9.2 mph - N/A   Clear
9:55 PM 82.9 °F 88.3 °F 72.3 °F 70% 29.84 in 10.0 mi SE 10.4 mph - N/A   Clear
10:15 PM 82.4 °F 87.7 °F 72.5 °F 72% 29.85 in 10.0 mi SSE 6.9 mph - N/A   Clear
10:35 PM 81.5 °F 86.5 °F 72.9 °F 75% 29.86 in 10.0 mi SSE 9.2 mph - N/A   Clear
10:55 PM 81.0 °F 86.0 °F 73.4 °F 78% 29.86 in 10.0 mi SSE 9.2 mph 16.1 mph N/A   Clear
11:15 PM 80.6 °F 85.4 °F 73.6 °F 79% 29.87 in 10.0 mi SSE 10.4 mph - N/A   Clear
11:35 PM 80.2 °F 84.9 °F 73.8 °F 81% 29.87 in 10.0 mi South 9.2 mph - N/A   Clear
11:55 PM 79.7 °F - 73.6 °F 81% 29.87 in 10.0 mi South 6.9 mph - N/A   Clear